Location: Cudham
(51.3000°N, 0.0667°E)
Time: 06:14:28
(UTC+00:00)

Terra - Pass Details

Date: 19 May 2025
Orbit: 690 x 691 km, 98.0° (Epoch: 18 June)

Event Time Altitude Azimuth Distance (km) Brightness Sun altitude
Exits shadow 20:50:08 - 171° (S) 2,609 4.3 -7.9°
Reaches altitude 10° 20:51:17 10° 172° (S) 2,139 3.8 -8.0°
Maximum altitude 20:55:58 71° 257° (WSW) 733 2.0 -8.5°
Drops below altitude 10° 21:00:41 10° 342° (NNW) 2,156 5.6 -9.0°
Sets 21:02:57 0° 345° (NNW) 3,077 6.4 -9.3°
